Theta_e
292 291 291 291 290 290 289 289 289 288 288 287 287 288 288 288 288 288 288 288 288 287 287 287 287 287 287 286 286 286 286 286 285 285 284 284 283 282 282 282 282 282 282 281 282 282 282 282 281 281 281 281 280 280 279 279 278 278 278 277 277 277 277 277 276 277 279 279 277 277 277 276 276 276 276 275 275 275 275 275 275 275 275 275 275
292 291 291 290 290 289 289 289 288 288 287 287 288 288 288 288 288 288 288 288 287 287 287 287 287 287 287 286 286 286 286 285 285 284 284 284 283 283 282 282 282 281 281 281 281 281 281 281 281 281 281 280 279 279 278 278 277 277 277 277 276 276 276 276 276 276 277 278 277 276 276 276 275 275 275 274 274 275 275 275 275 275 275 275 275
291 291 290 290 290 289 289 288 288 287 287 288 288 288 288 288 288 288 288 287 287 287 287 287 287 287 287 286 286 286 285 285 285 284 284 284 283 283 282 282 281 281 281 281 281 281 281 281 281 280 280 279 279 278 277 277 277 276 276 276 276 275 275 275 276 275 275 276 276 275 275 275 275 274 274 274 274 274 274 274 274 274 274 274 274
290 290 290 289 289 289 288 288 287 287 287 288 288 288 288 288 288 288 288 287 287 287 287 287 287 287 287 286 286 285 285 285 284 284 284 283 283 282 282 281 281 281 281 281 281 281 281 281 280 279 279 278 278 277 277 276 276 276 276 276 275 275 275 274 275 275 274 274 275 274 274 274 274 273 273 273 273 273 273 274 274 274 274 274 274
290 290 289 289 288 288 288 287 287 287 288 288 288 288 288 288 288 288 288 287 287 287 287 287 287 287 287 286 286 285 285 285 285 284 284 283 283 282 281 281 281 281 281 281 280 280 280 280 279 279 278 278 277 277 276 276 276 276 275 275 275 274 274 274 274 274 273 273 274 273 273 273 273 273 273 273 273 273 273 274 274 274 274 274 274
290 289 289 288 288 288 287 287 287 288 288 288 288 288 288 288 288 287 287 287 287 287 287 287 287 287 287 286 286 285 285 285 285 284 284 283 282 282 281 281 281 280 280 280 280 280 280 279 279 278 278 277 277 276 276 276 276 275 275 275 275 275 274 274 273 273 273 273 273 273 273 272 272 273 273 273 273 273 273 274 274 274 275 275 275
289 289 288 288 288 287 287 287 287 288 288 288 288 288 288 288 288 287 287 287 287 287 287 287 287 287 287 286 286 285 285 285 285 284 284 283 282 282 281 281 281 280 280 280 280 280 279 279 279 278 277 277 276 276 276 276 276 275 275 275 275 274 274 273 273 273 273 273 273 272 272 272 272 273 273 273 273 274 274 274 275 275 275 275 275
289 288 288 288 287 287 287 287 288 288 288 288 288 288 288 288 288 287 287 287 287 287 287 287 287 287 286 286 286 285 285 285 285 284 284 283 282 282 282 281 280 280 280 280 279 279 279 279 278 278 277 277 276 276 276 276 276 276 275 275 275 274 274 274 273 273 273 273 273 273 273 273 273 273 273 274 274 274 275 275 275 275 275 275 275
288 288 288 287 287 287 287 287 287 288 288 288 288 288 288 288 287 287 287 287 287 287 287 287 287 287 286 286 286 285 285 285 285 284 284 283 283 282 281 281 280 280 280 279 279 279 279 278 278 278 277 277 277 276 276 276 276 275 275 275 275 274 274 274 274 274 273 273 273 273 273 273 274 274 274 274 275 275 275 275 275 276 276 276 276
288 287 287 287 287 287 287 287 287 288 288 288 288 288 288 288 287 287 287 287 287 287 287 286 286 286 286 286 286 286 285 285 284 284 283 283 282 282 281 281 280 280 280 279 279 279 278 278 278 278 277 277 277 276 276 275 275 275 275 275 275 274 274 274 274 274 274 274 274 274 274 274 274 274 275 275 275 276 276 276 276 276 276 276 276
288 287 287 287 286 286 287 287 287 287 288 288 288 288 288 287 287 287 287 287 286 286 286 286 286 286 286 286 286 286 285 285 284 284 283 283 282 282 281 281 280 280 279 279 279 278 278 278 278 278 277 277 277 276 276 275 274 274 274 274 275 275 275 275 274 274 274 274 274 274 274 275 275 275 275 276 276 276 276 276 276 276 276 276 276
287 287 286 286 286 286 286 287 287 287 287 288 288 287 287 287 287 287 287 287 286 286 286 286 286 286 286 286 286 285 285 284 284 283 283 282 282 282 281 281 281 280 280 279 278 278 278 278 278 278 277 277 276 276 276 275 274 274 274 274 274 274 275 275 275 275 275 275 275 275 275 275 276 276 276 276 276 276 276 276 276 276 276 276 276
287 286 286 286 286 286 286 286 286 287 287 287 287 287 287 287 287 287 287 287 286 286 286 286 286 286 286 286 286 285 285 284 284 283 283 282 281 281 281 281 281 280 280 279 278 278 278 278 278 277 277 277 276 276 275 274 274 273 273 273 274 274 274 275 275 275 275 276 276 276 276 276 276 276 276 276 276 276 276 276 276 276 276 276 276
287 286 286 286 286 286 286 286 286 286 286 286 286 286 287 287 287 287 287 287 287 286 286 286 286 286 286 286 286 285 285 284 284 283 282 281 280 280 280 281 280 280 280 279 278 278 278 278 277 277 277 277 276 275 275 274 274 273 273 273 274 274 275 275 275 275 276 276 276 276 276 276 275 275 275 276 276 276 276 275 275 275 274 274 274
286 286 286 286 286 286 286 286 286 286 285 285 285 286 286 286 286 287 287 287 287 287 286 286 286 286 286 286 285 285 285 285 284 283 282 281 279 279 280 280 280 280 279 279 278 278 277 277 277 277 277 276 276 275 274 274 274 273 274 274 275 275 275 275 275 276 276 276 275 275 275 275 275 275 275 275 275 274 274 273 273 273 272 272 272
286 286 286 286 286 286 286 286 285 285 285 285 285 285 285 286 286 287 287 286 286 286 286 286 286 286 286 286 285 285 285 284 284 283 282 280 279 279 280 280 279 279 279 278 278 277 277 277 277 276 276 276 275 275 274 274 274 274 274 275 275 275 275 276 276 276 275 275 274 274 274 275 275 274 274 274 273 273 272 271 271 271 271 271 271
287 286 286 286 286 286 286 286 285 285 285 285 285 285 285 285 286 286 286 286 286 286 286 286 286 286 286 285 285 285 285 284 283 282 281 280 280 280 280 279 279 279 279 278 277 277 277 277 276 276 276 275 275 274 274 274 274 275 275 276 276 276 276 276 275 274 273 273 274 274 274 273 273 272 272 271 271 271 270 270 269 270 270 271 271
287 287 286 286 286 286 286 286 285 285 285 285 285 285 285 285 286 286 286 286 286 286 286 286 286 285 285 285 285 285 285 284 283 282 281 281 280 280 280 279 278 278 278 278 277 277 277 276 276 276 276 275 274 274 274 274 275 275 276 276 276 276 275 274 273 272 272 273 273 273 272 272 271 271 271 270 270 269 269 269 269 269 270 270 270
287 287 287 287 286 286 286 286 285 285 285 285 285 285 285 285 285 285 286 286 286 286 286 285 285 285 285 285 285 284 284 284 282 281 281 281 280 280 279 278 278 279 279 278 277 277 276 276 276 275 275 274 274 274 274 275 276 276 276 276 276 275 274 273 273 273 273 273 272 272 271 271 271 271 270 269 268 267 267 268 268 268 268 268 268
288 288 287 287 286 286 286 286 286 285 285 285 285 285 285 285 285 285 285 285 285 285 285 285 285 285 285 284 284 284 284 284 282 281 281 281 280 280 279 278 278 279 279 278 277 277 276 276 275 275 274 274 274 275 275 276 277 277 276 276 275 275 274 273 273 273 273 272 271 271 271 271 271 271 270 269 268 267 267 267 267 267 267 267 267
288 288 287 287 287 286 286 286 286 286 286 286 285 285 285 285 285 284 284 284 284 284 284 284 284 284 284 284 284 283 283 283 282 281 281 281 280 279 278 279 279 279 278 277 276 276 275 275 275 274 273 273 275 275 276 276 276 276 276 276 275 274 274 274 273 273 272 271 270 270 271 271 271 271 270 268 267 266 266 266 266 266 266 267 267
288 288 288 287 287 287 286 286 286 286 286 285 285 285 285 285 284 284 284 283 283 283 283 283 283 283 283 283 283 283 283 283 282 281 280 280 280 279 278 279 279 278 277 277 276 276 275 275 274 273 273 273 275 275 276 276 276 276 276 275 274 274 274 273 273 272 271 270 270 270 271 271 270 270 269 268 267 266 266 266 266 266 266 267 267
289 288 288 287 287 287 286 286 286 286 286 285 285 285 285 284 284 283 283 282 282 282 282 282 281 281 281 282 282 282 282 282 282 281 280 280 280 279 278 278 278 277 277 277 276 276 275 274 273 273 273 274 275 275 276 276 276 275 274 273 273 273 273 272 271 270 270 270 270 270 270 270 269 268 268 267 266 266 266 267 267 266 267 267 267
289 288 288 288 287 287 287 286 286 286 286 285 285 285 284 284 283 283 282 282 281 281 281 280 280 279 280 281 282 282 282 282 282 281 280 279 279 279 278 277 277 276 276 276 276 275 274 273 272 273 273 274 274 275 276 276 275 274 273 272 272 272 272 271 270 269 269 269 269 269 269 269 268 267 267 266 266 266 266 267 267 267 267 267 267
289 289 288 288 288 287 287 286 286 286 286 285 285 285 284 283 283 282 281 281 280 280 280 279 279 279 279 280 281 282 281 281 281 281 280 279 279 278 277 277 277 277 276 276 275 274 273 272 273 273 274 274 275 276 276 275 274 273 272 272 272 271 270 270 269 268 268 269 268 268 268 268 267 267 266 266 266 266 266 266 267 267 267 267 267
290 290 289 289 288 288 287 287 286 286 286 285 285 285 284 284 283 282 281 280 280 279 279 278 278 278 277 279 280 280 280 280 280 280 280 279 278 278 276 276 276 276 276 276 275 274 274 274 274 274 274 274 275 276 275 274 274 273 272 271 270 270 269 269 268 268 268 268 267 267 268 267 267 267 267 266 266 266 266 266 266 266 267 267 267
291 290 290 289 289 288 287 287 287 286 286 285 285 285 284 284 283 282 281 280 279 279 278 278 277 276 277 278 279 278 277 277 278 279 279 278 278 277 276 275 275 276 276 276 276 275 275 275 275 275 275 275 275 275 274 274 274 273 271 270 270 269 269 269 268 267 267 267 266 266 267 267 267 266 266 266 266 266 266 266 266 266 266 267 266
290 290 289 289 288 288 287 287 286 286 285 285 284 284 284 283 283 282 282 281 280 279 278 277 277 277 277 277 276 275 275 275 276 277 278 278 278 277 276 275 275 275 275 275 275 275 275 275 274 275 275 275 275 274 274 273 273 272 271 270 269 269 269 268 267 267 267 266 266 266 266 266 266 266 266 266 266 266 266 266 266 266 266 266 266
289 288 288 288 287 287 287 286 286 285 285 284 284 283 283 282 282 282 282 281 280 279 278 277 277 277 276 275 275 274 274 275 276 276 277 277 277 277 277 276 275 275 275 274 274 274 273 273 273 273 273 274 274 273 273 273 272 271 270 269 269 269 268 268 267 267 267 266 266 266 265 265 265 265 265 265 265 266 265 265 266 266 266 266 266
288 288 288 287 287 287 286 286 286 285 285 284 284 283 282 282 281 281 280 279 278 278 277 277 277 276 275 275 275 275 275 276 276 276 276 276 276 276 275 275 275 274 274 273 273 273 273 272 272 272 272 273 273 273 273 272 272 271 270 269 269 269 268 267 267 267 266 266 265 265 265 264 264 265 264 264 265 265 265 265 265 265 266 266 266
287 287 287 287 286 286 285 285 284 284 284 283 283 282 282 281 280 280 279 278 277 277 276 276 276 275 275 275 275 275 275 275 275 274 275 275 275 274 274 274 274 273 273 273 273 273 273 272 272 272 272 272 272 272 272 272 271 271 270 269 269 268 268 267 267 266 266 265 265 265 265 264 264 264 264 264 264 264 265 265 265 265 265 265 265
286 286 286 285 285 284 283 283 282 282 282 281 280 280 279 279 279 278 277 276 276 275 275 275 275 275 275 276 275 275 275 274 274 274 274 274 274 274 274 274 274 274 274 274 273 274 273 273 273 272 272 272 272 272 272 272 271 270 270 269 268 268 268 267 266 266 265 265 265 265 265 264 264 263 264 264 264 264 264 265 265 265 265 265 265
284 284 284 284 283 282 282 281 281 280 280 279 279 278 277 276 276 276 276 276 275 274 275 275 275 275 275 276 275 275 275 274 274 274 274 274 274 275 275 275 275 276 276 275 275 275 274 273 273 272 272 272 272 272 272 271 271 270 269 268 268 268 267 267 266 265 265 265 265 265 265 264 264 263 263 263 263 264 264 264 264 264 264 265 265
282 282 282 282 281 281 280 280 280 279 279 278 277 277 276 276 275 274 274 274 274 274 274 274 275 275 275 275 275 275 275 274 274 274 274 274 275 275 275 275 276 276 276 276 276 276 275 274 273 272 272 272 272 272 271 271 271 270 269 268 267 267 267 266 266 265 265 265 265 264 264 264 264 263 263 263 263 263 264 264 264 264 264 264 265
281 281 280 280 279 279 278 278 278 277 277 277 276 276 275 275 274 273 273 272 272 272 272 273 273 274 275 275 274 275 275 275 275 275 275 275 275 275 276 276 276 276 276 276 276 276 275 274 273 273 272 272 272 271 271 271 270 270 269 268 267 267 266 266 266 265 265 265 265 265 264 264 263 263 262 262 262 263 263 263 264 264 264 264 264
279 279 279 278 278 277 277 276 276 276 275 275 275 274 274 273 273 272 272 271 271 271 271 271 272 272 273 274 274 274 274 274 275 274 275 275 275 275 276 275 275 275 275 275 275 275 275 274 273 273 272 272 272 271 271 271 270 269 268 267 267 266 266 266 265 265 265 264 265 265 264 264 263 263 262 262 262 262 263 263 263 263 263 264 264
278 277 277 277 276 276 275 275 274 274 274 273 273 272 272 272 271 271 270 270 270 269 269 269 269 270 271 272 272 272 272 273 273 273 273 273 273 274 274 274 274 274 274 274 274 273 273 273 273 272 272 272 271 271 271 270 270 269 268 267 266 265 265 265 265 264 264 264 265 264 264 263 263 262 262 261 261 262 262 263 263 263 263 263 264
276 275 275 275 274 274 273 273 272 272 272 272 271 271 271 270 270 269 269 268 268 268 268 268 268 268 269 269 270 270 270 270 270 271 271 271 271 271 272 272 272 272 272 272 272 272 272 272 272 272 271 271 271 271 270 270 269 268 267 266 265 265 265 264 264 264 264 264 264 264 263 263 263 262 261 261 261 261 261 262 262 262 263 263 264
274 273 273 272 272 272 271 271 271 270 270 270 270 269 269 269 268 268 267 267 267 267 267 267 267 267 267 267 268 268 268 267 268 268 268 268 268 268 269 269 270 270 270 270 270 270 270 270 271 270 270 270 270 270 269 269 268 267 266 265 265 264 264 264 264 264 264 263 264 263 263 263 262 262 261 261 261 261 261 262 262 262 263 263 263
271 271 271 270 270 270 270 269 269 269 269 268 268 268 268 267 267 267 266 266 266 266 266 266 265 265 265 265 266 266 266 266 266 266 265 266 266 266 266 266 266 267 267 267 268 268 268 268 269 269 269 269 269 268 268 268 267 266 265 265 264 264 264 264 263 263 263 263 263 263 263 262 262 261 261 261 261 260 261 261 262 262 262 262 263
269 269 269 269 268 268 268 268 268 267 267 267 267 267 267 266 266 266 265 265 265 265 264 264 264 264 264 264 265 265 266 265 265 265 264 264 264 264 264 265 264 264 265 265 265 265 266 266 267 267 267 267 267 267 267 266 266 265 265 264 263 263 263 263 263 263 263 263 263 262 262 262 261 261 261 260 260 260 260 260 260 261 261 261 262
268 268 268 267 267 267 267 267 267 267 267 266 266 266 266 265 265 265 265 264 264 263 263 263 263 263 263 263 263 264 264 264 263 263 263 262 262 263 263 263 263 263 263 263 263 264 264 264 265 266 266 266 266 266 265 265 264 264 264 263 263 263 263 263 263 263 262 262 262 262 262 261 261 260 260 260 260 259 259 259 259 260 261 261 262
267 267 267 267 267 267 267 266 266 266 266 266 265 265 265 264 264 264 263 263 263 262 262 262 262 262 262 262 262 262 262 262 262 262 261 261 261 261 261 261 261 262 262 262 262 262 263 263 264 264 264 265 265 265 264 264 264 263 263 263 263 263 263 262 262 262 262 262 261 261 261 261 261 260 260 260 260 259 259 259 259 260 260 261 262
267 267 267 267 266 266 266 265 265 265 265 265 264 264 264 263 263 263 262 262 262 261 261 261 261 261 261 261 261 261 261 261 261 261 261 260 260 260 260 260 260 260 260 260 261 261 261 262 263 263 263 263 263 263 263 263 263 262 262 262 262 262 262 262 262 262 262 261 261 261 261 261 260 260 260 260 259 259 258 258 258 259 260 261 261
266 266 266 265 265 265 264 264 264 264 263 263 263 263 262 262 262 262 261 261 261 261 261 261 260 260 260 260 260 260 260 260 260 260 260 260 260 260 260 260 259 259 259 259 260 260 260 260 261 261 262 262 262 262 262 262 261 261 261 261 261 262 262 262 262 261 261 261 261 261 260 260 260 260 260 260 259 258 258 258 258 258 259 260 261
265 265 265 264 264 264 263 263 263 263 262 262 262 262 262 261 261 261 261 261 261 260 260 260 260 260 260 260 260 260 260 260 260 260 260 260 260 260 260 260 259 259 259 259 259 259 260 260 260 260 260 260 261 261 261 261 261 261 261 261 261 261 261 261 261 261 260 260 260 260 260 260 259 259 259 259 258 258 258 258 258 259 259 260 261
264 264 264 264 263 263 263 263 262 262 262 262 262 261 261 261 261 261 260 260 260 260 260 260 260 260 260 260 260 260 260 260 260 260 260 260 260 260 260 260 259 260 260 260 259 259 259 259 260 260 260 260 260 260 260 260 260 260 260 261 261 261 261 261 260 260 260 260 260 260 259 259 259 259 259 258 258 258 258 258 258 259 259 260 261
264 263 263 263 263 262 262 262 262 262 261 261 261 261 261 261 260 260 260 260 260 260 260 260 260 260 260 260 260 260 260 260 260 260 260 260 260 260 260 260 260 260 260 260 260 260 259 259 260 259 260 260 259 259 260 260 260 260 260 260 260 260 260 260 260 260 260 259 259 259 259 259 258 258 258 258 258 258 258 258 258 259 259 260 261
263 263 262 262 262 262 262 261 261 261 261 261 261 261 260 260 260 260 260 260 260 260 260 260 260 260 260 260 260 260 260 260 260 260 260 260 260 260 260 260 260 260 260 260 260 260 260 260 260 259 259 260 260 260 260 260 260 260 260 260 260 260 260 260 260 260 259 259 259 259 259 258 258 258 258 258 258 258 257 257 258 259 259 260 260
262 262 262 262 261 261 261 261 261 261 261 260 260 260 260 260 260 260 260 260 260 260 260 260 260 260 260 260 260 259 259 259 260 260 260 260 260 260 259 260 260 260 260 260 260 260 260 260 260 260 260 260 260 260 260 260 260 260 260 260 260 260 260 259 259 259 259 259 259 259 259 258 258 258 258 258 258 258 258 258 258 259 259 260 261
262 262 261 261 261 261 261 261 261 261 261 261 261 260 260 261 261 260 260 260 260 260 260 260 260 260 260 259 259 259 259 259 259 259 259 260 259 259 259 259 259 259 259 259 259 259 260 260 260 260 260 260 260 260 260 260 260 260 260 260 260 260 259 259 259 259 259 259 259 259 258 258 258 258 258 258 258 258 258 258 259 259 260 260 261
Wind_Speed
37 37 36 37 37 37 36 36 35 35 34 34 33 32 30 29 27 25 24 23 21 20 19 18 16 15 14 12 11 10 9 8 7 6 6 5 5 4 4 3 2 2 2 1 1 1 1 1 2 3 4 4 4 5 6 5 5 5 4 6 7 7 9 12 13 20 33 36 26 24 29 31 30 30 32 35 37 36 35 34 34 34 34 34 33
37 37 37 37 37 37 37 36 36 36 35 34 33 32 30 28 27 26 25 23 21 20 19 18 16 15 13 12 10 10 9 8 7 7 6 5 4 3 3 2 2 2 2 1 2 2 3 3 3 4 5 5 5 5 6 6 5 6 7 8 10 10 9 12 15 18 27 37 32 26 30 32 30 30 32 34 36 35 34 34 35 34 34 34 34
37 37 37 37 37 37 37 37 37 36 36 35 33 32 30 29 27 26 25 23 21 20 18 17 16 14 13 11 10 10 9 8 7 6 5 4 3 2 2 1 1 1 1 2 3 4 4 4 4 5 6 6 5 5 6 6 7 8 9 10 11 13 11 10 14 17 22 33 34 27 28 33 32 30 30 31 32 31 32 34 35 34 34 34 33
38 38 38 38 37 37 38 38 38 37 36 35 34 32 31 29 28 26 25 24 22 21 18 17 16 14 13 12 11 10 9 8 7 5 4 3 2 1 1 1 2 2 3 4 5 5 5 5 5 6 6 6 6 6 6 7 8 9 10 13 14 14 14 12 14 17 20 28 32 27 26 30 32 30 29 30 30 31 33 34 35 34 34 33 33
38 39 39 38 38 38 39 39 39 38 37 36 34 33 31 30 28 27 25 24 23 22 19 17 15 14 13 12 11 10 9 7 6 4 3 2 1 1 2 2 3 4 4 5 6 6 6 6 6 6 7 7 7 7 7 8 10 11 13 16 16 14 15 15 15 16 18 23 29 28 24 26 30 28 25 27 32 34 34 34 34 33 34 34 34
39 39 39 39 39 39 40 40 40 39 37 36 35 33 32 30 29 28 26 25 23 22 20 18 16 14 13 12 11 10 8 7 5 3 2 1 1 2 3 3 4 5 6 6 7 7 7 7 7 8 8 8 8 7 8 9 11 13 15 16 16 15 15 17 16 15 16 18 22 25 25 25 28 27 23 26 32 35 35 36 35 32 33 36 36
39 40 40 40 40 41 41 41 40 39 38 37 35 34 33 31 30 28 27 25 24 22 20 18 17 15 13 12 11 9 8 6 5 3 2 1 2 3 4 5 5 6 7 7 7 8 8 8 9 9 8 8 8 8 8 10 12 14 16 15 15 15 16 17 15 12 13 15 16 20 23 24 23 24 26 28 32 32 30 32 37 37 35 36 37
40 40 40 40 41 41 42 41 40 39 38 37 36 34 33 32 30 29 27 25 24 22 20 19 18 16 14 12 11 9 8 6 5 3 2 2 3 4 5 6 7 7 8 9 9 9 10 10 10 10 9 9 9 8 9 11 13 15 15 14 14 15 15 16 15 12 13 15 16 17 21 22 22 24 29 30 29 30 30 31 37 41 39 37 37
41 41 41 41 42 41 41 40 40 39 38 38 37 35 34 33 31 30 28 26 24 22 21 20 19 17 15 14 12 10 8 7 5 4 3 4 5 5 6 7 8 9 9 10 10 11 10 11 10 10 10 10 9 9 10 11 12 13 14 13 13 14 15 15 15 16 16 18 19 19 20 21 21 24 30 31 28 32 38 38 38 39 39 38 37
41 41 42 42 41 41 41 40 40 39 39 39 38 37 35 34 32 31 29 27 25 24 23 21 19 18 16 15 14 12 10 8 7 6 5 5 6 7 7 8 9 10 11 11 11 12 11 11 11 10 11 11 10 11 12 12 12 12 12 12 12 13 15 16 17 17 18 20 21 20 20 21 22 25 32 37 37 37 41 38 34 36 36 33 33
41 42 42 41 40 40 40 40 40 40 40 39 39 38 37 35 34 32 31 29 27 25 24 23 21 19 17 16 14 13 11 10 9 7 7 8 8 8 8 9 10 11 12 13 12 13 12 11 11 11 11 11 12 12 13 13 13 12 11 10 11 11 13 15 17 18 19 21 23 22 21 25 30 31 33 37 37 34 34 32 30 34 34 27 27
41 41 40 39 39 40 40 40 40 40 40 40 40 39 37 36 35 34 32 30 29 27 26 24 22 20 19 17 16 14 13 12 10 9 9 10 10 10 10 10 11 12 13 14 14 14 14 12 11 11 11 12 12 13 14 14 13 12 11 10 10 11 12 14 17 19 21 22 25 24 21 23 28 27 24 27 30 30 32 33 30 31 32 28 26
40 39 38 39 40 40 40 40 41 41 41 41 40 39 38 38 37 36 33 31 30 28 27 25 23 22 21 19 17 16 15 13 12 11 11 12 12 12 12 12 13 14 14 15 15 15 15 14 13 12 12 12 13 14 14 14 13 12 11 10 11 12 13 14 16 19 21 23 26 27 24 22 24 25 25 28 33 34 33 33 30 29 30 28 28
38 37 38 39 39 39 40 41 41 42 41 40 40 40 40 40 39 36 34 32 31 30 28 27 25 24 22 21 19 18 16 15 14 13 13 13 14 14 14 14 14 15 15 16 16 16 16 15 15 14 13 13 14 14 14 14 13 11 10 12 14 15 16 17 18 20 20 22 25 27 27 25 27 30 31 32 33 32 30 31 32 32 32 32 32
35 36 37 38 38 39 40 41 41 41 40 40 40 41 41 41 40 37 35 34 33 32 30 28 27 25 24 22 21 19 18 17 17 16 16 15 15 16 16 17 17 17 17 17 17 17 16 15 16 16 15 14 14 14 14 12 11 11 13 15 17 18 19 20 20 20 20 20 23 25 27 27 27 29 31 31 30 31 30 31 32 32 33 34 32
34 36 37 37 38 40 41 41 40 40 40 41 41 41 42 42 40 39 37 36 34 33 31 30 28 27 25 24 23 22 20 19 19 18 17 17 17 18 18 19 19 19 18 18 18 17 17 16 17 17 16 16 15 13 12 11 12 13 16 17 18 20 20 19 18 18 19 22 23 24 24 25 25 27 29 29 28 28 29 30 29 28 29 29 27
36 37 37 38 39 40 41 41 41 40 41 41 42 42 43 42 41 40 39 38 36 35 33 31 30 28 27 26 25 24 22 22 21 20 19 19 19 20 20 21 21 20 20 19 19 18 18 17 17 17 17 17 15 12 10 11 13 15 17 19 20 20 20 20 20 22 21 20 20 20 22 24 26 26 27 26 24 24 25 27 27 26 25 22 20
38 38 38 39 40 40 41 41 42 42 42 43 44 44 43 42 42 42 41 40 39 37 35 33 31 30 29 28 27 25 24 23 23 22 21 20 21 22 22 22 22 22 22 21 20 20 19 18 17 18 19 17 13 11 11 13 14 16 17 19 20 20 21 22 25 25 21 18 19 23 25 27 27 27 26 24 21 19 20 21 23 24 22 19 20
39 39 39 39 39 40 41 42 42 42 43 44 44 44 43 43 43 42 42 41 39 37 36 35 34 33 32 30 28 27 26 25 25 25 23 22 23 23 24 24 24 24 23 23 22 21 20 20 19 18 18 16 13 13 13 14 15 17 18 19 20 22 23 24 24 22 20 21 26 29 28 27 26 25 24 23 21 18 16 16 19 20 20 20 22
38 38 38 37 38 39 40 41 42 43 43 44 43 43 43 42 42 42 42 40 38 37 37 36 36 35 33 32 31 30 29 27 27 27 25 24 25 25 26 26 26 26 25 24 23 22 22 21 20 18 16 16 16 15 15 15 15 17 17 18 20 23 24 23 20 19 22 27 29 29 27 25 24 23 23 24 23 20 17 15 16 17 18 20 21
35 35 36 36 37 39 40 41 42 42 43 42 42 42 42 42 41 42 41 40 39 38 37 37 36 36 35 34 33 32 31 30 29 29 28 27 26 27 28 29 27 27 26 25 24 24 23 22 21 17 16 16 16 16 15 15 15 16 17 19 20 21 21 21 20 22 25 28 28 26 24 23 22 22 24 24 24 22 21 20 18 18 18 20 22
33 34 34 35 36 38 39 40 40 41 41 40 40 40 40 40 41 40 39 39 39 38 38 37 37 37 36 36 36 35 34 33 32 31 30 29 28 28 30 30 28 27 27 27 27 26 25 24 21 17 16 16 16 15 15 15 15 16 18 18 17 17 18 20 22 24 25 25 23 22 22 22 22 24 25 26 25 24 23 23 21 20 20 20 22
30 31 32 33 35 36 37 38 38 39 39 39 39 40 39 39 39 38 38 38 38 38 38 38 37 37 37 38 38 38 37 36 35 34 32 32 31 30 30 30 29 28 29 29 28 27 26 24 20 17 16 17 16 16 16 15 15 16 16 16 15 16 17 20 22 23 22 21 20 20 20 21 23 25 26 26 26 25 24 23 23 23 23 24 24
26 27 29 31 32 33 35 36 36 37 38 38 38 38 38 37 37 37 37 37 37 37 38 38 37 37 38 40 41 41 40 39 38 36 35 34 32 31 31 30 28 28 29 29 29 27 25 22 19 17 17 18 17 17 16 16 16 15 14 14 14 16 19 21 21 20 19 18 18 19 20 21 23 25 26 27 27 25 24 24 24 24 25 27 28
23 25 26 28 29 31 31 33 34 35 36 36 37 37 37 36 36 36 36 36 37 38 38 37 37 38 39 41 43 43 42 41 41 38 36 35 34 33 32 30 27 27 28 29 29 26 23 20 17 17 18 18 18 18 18 19 19 17 15 13 14 17 20 20 19 18 17 17 17 19 20 21 22 24 25 26 26 25 24 24 26 27 28 29 31
21 23 24 26 27 28 29 30 32 33 34 36 37 37 37 37 37 37 37 37 38 38 38 37 37 38 39 41 44 43 41 41 41 39 37 36 35 34 33 31 28 27 27 27 26 24 21 19 19 19 19 18 19 20 21 21 22 20 17 16 17 19 19 18 17 16 17 17 17 18 20 20 22 24 24 24 25 24 24 25 27 29 29 30 33
18 20 22 23 24 26 28 29 30 32 33 34 35 36 36 37 37 37 38 38 38 39 38 38 37 38 40 43 43 40 38 38 39 38 36 37 37 35 33 32 30 27 27 27 27 25 23 21 20 19 18 19 20 21 21 21 21 21 19 19 19 19 17 16 16 16 17 17 17 18 19 20 21 23 23 23 24 24 23 23 26 28 29 29 30
15 17 19 20 22 24 26 27 28 30 31 33 34 35 36 37 38 39 41 41 41 41 40 39 39 40 39 39 36 32 33 36 37 37 35 34 35 34 34 34 32 30 29 29 28 27 26 24 22 21 20 21 21 21 21 22 22 22 20 19 18 17 15 15 15 16 16 16 17 17 18 19 21 22 22 23 24 24 23 23 24 26 27 27 26
12 14 16 17 19 21 22 24 26 27 29 31 32 34 35 36 38 40 40 39 38 38 37 38 38 37 34 32 29 28 32 35 35 34 31 30 32 33 33 33 31 30 29 28 26 26 26 25 25 25 25 25 25 25 25 25 25 23 21 18 17 16 15 15 15 16 15 15 16 17 17 19 20 21 21 23 24 24 23 23 24 25 26 26 25
12 14 15 17 18 19 21 22 24 25 27 28 30 31 32 33 35 37 37 35 35 34 34 34 34 31 31 31 30 30 32 32 30 28 27 26 27 28 29 28 26 26 26 24 23 24 25 26 26 26 27 27 28 28 28 27 25 24 21 18 18 17 16 16 16 15 14 15 15 16 17 18 19 20 21 23 24 25 24 24 24 24 24 24 25
15 16 17 18 19 19 21 22 22 24 25 26 27 28 30 31 32 33 33 33 32 31 31 31 29 27 27 29 29 28 28 27 25 24 24 22 21 22 23 23 23 23 22 21 23 26 26 26 26 26 26 27 29 29 28 26 25 23 21 19 19 18 18 17 15 13 14 15 15 15 16 17 18 19 20 22 23 24 24 24 24 24 23 23 24
15 16 16 17 18 18 19 20 21 22 23 24 24 25 26 27 28 29 28 28 27 26 25 25 25 23 22 21 22 24 24 22 21 20 19 19 19 19 20 20 21 21 21 22 26 28 28 27 27 26 26 28 29 29 28 26 24 22 21 20 20 19 18 17 14 13 15 15 15 15 16 16 17 19 20 21 22 23 24 24 24 23 24 23 24
13 13 14 15 15 16 17 18 19 20 21 22 22 23 23 24 24 24 23 23 23 21 19 19 19 19 18 17 17 18 18 18 18 18 17 17 17 18 19 20 21 22 23 25 28 28 27 28 28 27 26 28 29 29 27 25 23 22 22 22 21 19 18 16 15 15 15 15 15 15 16 16 17 18 19 21 21 22 23 23 23 23 22 22 23
11 11 12 13 14 15 15 16 17 18 18 19 20 20 21 21 21 20 19 17 18 18 17 16 16 16 17 17 17 17 16 15 17 18 17 17 17 18 19 21 22 23 24 27 29 28 26 26 26 25 25 27 29 28 26 24 24 23 23 23 22 20 18 17 17 17 16 16 16 16 16 16 16 17 19 21 22 22 22 22 21 22 21 21 23
10 11 11 12 13 14 14 14 15 15 16 17 17 18 18 18 18 17 16 15 14 14 14 14 14 14 15 15 14 15 15 15 15 16 16 17 17 18 19 22 23 24 25 27 28 27 25 24 24 24 26 29 29 28 25 24 24 24 24 24 23 21 19 18 18 17 16 16 16 17 16 16 17 17 19 21 22 22 22 21 21 21 22 22 23
10 10 11 11 12 12 12 12 12 13 13 14 14 14 14 14 14 14 14 13 13 13 12 11 11 13 15 15 13 13 14 15 14 13 13 14 14 16 19 21 21 21 23 26 27 27 26 25 25 25 27 29 29 27 25 25 26 25 25 24 23 21 19 18 18 17 17 17 17 17 16 17 17 18 19 20 21 21 21 21 21 22 22 22 22
8 9 9 9 9 10 10 10 9 10 10 10 10 11 11 11 12 12 12 12 12 11 11 10 9 10 13 15 15 15 16 16 16 16 15 14 14 15 19 21 20 20 21 23 24 25 27 27 27 28 29 30 29 27 26 27 27 26 25 25 24 22 20 19 18 18 18 17 17 17 17 18 18 18 18 20 22 22 21 20 20 21 22 21 21
6 6 6 6 6 6 7 6 6 6 7 7 7 8 8 8 9 9 9 9 9 9 9 9 9 9 11 12 13 14 15 16 17 18 19 19 18 19 20 21 21 21 22 22 22 24 27 28 29 31 32 32 31 30 29 28 28 27 26 25 24 22 20 19 18 18 18 18 17 17 18 18 18 18 19 20 21 22 22 21 21 21 21 21 21
3 3 3 4 4 4 4 5 5 5 5 5 6 6 6 7 7 7 7 7 7 7 7 7 7 8 8 9 10 10 12 13 14 15 16 16 17 18 20 22 22 22 22 23 23 24 25 27 29 30 32 32 32 30 29 28 27 26 26 25 24 22 21 20 19 19 18 18 18 17 18 18 19 19 19 20 21 22 22 21 20 19 20 21 23
1 1 1 1 1 2 2 3 3 4 4 4 5 5 5 5 5 5 5 5 5 5 5 6 6 6 7 8 8 8 11 13 13 14 15 15 16 16 17 20 22 23 23 24 24 24 25 26 27 28 29 29 29 28 28 27 27 26 25 25 24 23 21 20 20 19 18 18 18 18 18 19 19 19 20 21 20 20 20 20 21 20 20 22 23
2 2 1 1 1 1 1 1 2 2 2 2 2 2 2 2 2 3 3 3 4 4 4 5 5 6 7 7 7 8 11 12 12 12 13 14 15 16 17 18 20 21 22 24 25 25 26 26 27 28 28 27 26 26 27 27 27 26 26 25 24 23 21 20 20 19 19 18 18 18 19 19 19 19 20 20 20 19 20 21 21 21 21 22 22
4 4 4 4 3 3 2 2 1 1 1 1 2 1 1 2 2 2 3 3 3 4 4 5 6 7 7 7 7 8 10 12 12 12 13 14 14 15 16 17 19 20 22 23 24 25 26 27 28 28 27 27 26 26 27 27 26 26 26 25 24 23 22 20 19 19 19 18 19 19 19 19 19 19 19 20 21 21 21 20 20 21 21 22 22
5 4 4 4 4 3 2 2 2 1 1 1 1 1 1 1 1 2 2 3 3 4 5 6 7 7 6 6 7 8 9 10 12 13 14 15 16 16 16 17 18 19 21 22 23 23 24 26 27 28 27 26 26 25 26 25 25 24 24 24 23 22 21 20 20 19 19 19 19 18 18 19 19 19 20 20 21 21 20 20 21 21 20 20 21
4 3 3 3 3 2 2 2 1 1 1 0 0 0 1 2 2 3 3 4 4 5 5 6 6 7 7 7 7 8 9 10 11 12 14 14 16 17 17 17 18 18 20 21 22 21 21 23 25 26 26 25 25 25 26 26 24 23 23 22 22 22 21 20 19 19 18 18 19 19 19 19 19 19 20 20 20 20 21 20 20 19 18 19 20
3 3 2 2 2 2 1 1 0 0 0 1 1 2 2 3 3 3 3 3 3 4 5 5 6 7 8 9 9 10 11 11 12 13 14 15 16 17 17 17 18 18 18 19 19 20 21 22 23 24 25 26 26 27 27 26 24 23 22 22 22 22 21 20 19 18 18 18 19 19 19 19 19 20 20 20 19 19 20 20 19 18 18 19 20
3 2 2 2 1 1 1 1 1 1 2 2 2 2 2 3 2 2 3 4 4 5 6 7 8 9 9 10 11 11 12 12 13 14 15 15 16 17 17 17 18 18 18 17 17 18 19 20 22 23 25 26 26 25 24 23 22 22 22 21 21 21 20 19 19 18 18 18 18 18 18 19 20 19 19 19 19 19 20 21 19 18 18 19 21
2 2 2 1 1 1 1 1 1 1 1 1 2 2 2 2 3 4 4 5 6 7 8 8 9 9 10 10 11 11 12 12 13 14 15 16 16 16 17 17 17 17 17 16 16 16 17 17 18 19 20 21 22 22 21 20 19 19 20 20 20 20 20 19 18 18 18 17 17 18 18 19 19 19 19 19 19 20 20 20 19 18 18 20 21
2 2 1 1 1 1 0 0 0 0 1 1 1 2 2 3 4 4 5 6 7 7 8 9 9 10 10 11 11 12 12 13 14 14 15 16 16 16 16 16 16 16 16 16 15 15 15 15 16 17 18 19 19 20 19 18 17 18 18 19 19 19 19 18 18 18 17 17 17 17 18 18 18 19 19 19 19 19 19 18 17 18 19 20 21
3 2 2 1 1 1 0 0 0 1 2 2 3 4 4 5 6 6 7 7 8 8 9 10 10 11 11 12 12 13 13 14 15 15 15 16 16 15 15 15 15 15 16 16 15 15 14 14 15 15 16 17 18 18 18 17 18 18 18 18 18 17 17 17 17 17 16 16 16 16 16 17 18 18 17 17 16 16 17 17 17 19 20 21 22
2 2 1 0 0 1 1 2 2 3 3 4 5 5 6 7 8 8 8 9 10 10 10 11 11 12 13 13 14 14 15 15 15 16 16 16 16 15 15 15 15 15 15 15 15 15 15 15 15 15 15 16 17 17 17 18 18 18 17 17 17 17 16 16 16 16 15 15 15 15 15 16 16 15 15 15 16 16 17 18 19 21 22 22 22
0 0 1 1 2 2 3 3 3 4 5 5 6 7 8 9 9 9 10 10 11 11 11 12 13 13 14 14 15 15 16 16 16 16 16 16 16 16 16 16 16 15 15 15 15 15 14 14 14 14 15 15 16 16 17 17 17 16 16 16 16 16 15 15 15 14 14 14 14 14 14 14 14 15 16 17 17 17 18 19 20 21 22 22 22
Wind_Direction
174 173 174 174 175 175 176 176 176 175 173 171 169 167 165 163 161 159 156 155 154 152 147 141 136 132 129 127 125 123 125 129 135 145 154 159 161 162 166 171 174 172 173 202 233 274 305 299 300 297 299 304 308 316 319 323 326 329 329 316 308 301 300 301 289 287 302 310 311 314 318 320 324 325 324 324 326 329 330 330 331 330 329 328 329
176 176 175 176 177 177 178 178 178 176 174 172 171 168 167 165 164 162 159 158 158 155 149 143 139 136 133 131 131 131 132 138 145 153 158 161 164 169 177 184 201 197 186 233 263 278 282 275 274 275 278 289 298 310 318 324 328 325 321 312 309 310 305 302 298 290 297 306 310 315 318 320 322 324 325 325 326 330 330 329 329 329 328 327 326
177 177 177 178 179 179 179 179 178 177 175 174 173 171 169 168 167 166 163 161 159 156 152 146 142 140 138 137 137 137 140 144 149 152 155 159 165 178 198 209 239 272 275 276 275 274 275 273 271 270 273 285 299 310 316 323 325 318 316 314 312 313 308 298 297 294 294 300 307 315 319 319 320 323 325 325 327 329 327 326 327 326 326 327 325
179 179 179 179 180 180 179 179 178 177 176 176 175 173 172 171 170 170 167 164 161 158 154 150 148 145 144 144 144 145 146 144 146 149 150 155 173 199 252 283 295 299 290 282 279 276 276 275 272 275 281 288 300 310 316 319 318 315 314 315 314 312 309 302 294 294 294 297 303 312 318 317 319 322 325 326 327 327 325 323 324 323 324 325 323
180 180 180 180 180 180 180 180 179 179 179 178 178 176 175 174 173 173 172 168 164 161 158 156 155 153 152 151 151 151 146 140 141 142 140 154 199 248 282 294 295 292 284 280 280 278 279 281 279 277 283 291 298 307 313 314 313 313 312 313 315 314 312 312 307 302 296 294 300 310 317 318 319 321 326 328 326 326 325 323 323 322 323 323 322
181 181 181 181 181 182 182 181 181 182 182 181 180 179 179 178 177 176 175 172 169 166 165 163 162 161 160 159 159 155 148 142 141 137 139 182 249 274 285 291 291 287 284 281 281 280 280 282 282 277 276 285 293 300 306 308 307 308 309 311 315 316 315 316 317 311 301 296 301 309 315 320 320 320 325 328 324 322 322 322 322 321 321 321 320
182 182 183 183 184 184 184 184 184 185 185 184 183 183 182 182 180 179 178 177 174 172 170 169 168 168 167 166 166 162 153 150 151 150 168 230 265 278 285 291 291 290 288 286 283 281 279 276 274 272 270 275 283 291 298 302 303 304 307 312 314 315 316 317 317 311 302 301 303 307 312 317 317 314 319 324 322 318 319 319 318 319 319 317 315
183 184 185 185 187 187 186 186 187 187 187 186 186 186 186 185 183 182 182 181 180 178 177 176 173 172 173 174 175 172 165 164 166 174 204 241 263 279 286 289 291 291 289 287 284 277 275 273 268 265 266 268 277 287 292 296 299 300 303 307 309 311 312 313 311 306 301 302 302 304 308 311 311 311 316 321 319 317 319 315 309 312 315 313 311
185 186 187 188 190 189 188 188 189 189 189 188 189 189 189 188 186 186 186 185 185 183 182 182 180 179 179 181 185 184 181 181 184 197 223 248 263 275 282 286 290 290 288 285 282 277 273 271 267 264 266 269 274 280 282 285 289 293 298 301 303 306 307 307 306 303 301 298 297 300 302 301 303 308 312 316 314 312 315 312 303 304 309 308 307
187 188 190 191 192 190 189 190 190 191 191 191 192 192 192 190 189 189 189 188 188 187 186 187 187 187 188 189 191 192 193 196 199 209 229 249 261 269 277 283 285 286 287 283 279 276 272 270 269 266 267 270 273 275 277 278 278 281 288 293 296 300 301 302 302 301 301 297 295 297 295 292 298 303 305 310 311 308 310 309 303 304 308 306 306
189 191 192 192 192 191 190 191 192 193 194 194 195 195 194 193 192 193 193 191 191 192 192 192 192 194 195 196 198 200 202 205 208 217 233 247 257 264 271 278 282 283 284 282 278 276 273 271 270 268 268 271 274 276 277 275 274 276 280 284 287 290 293 297 299 299 297 294 293 293 289 290 298 302 302 306 309 307 306 307 303 304 306 304 304
192 193 194 193 193 192 192 192 193 195 196 197 198 198 196 196 196 196 196 195 195 196 197 198 198 199 201 202 204 207 209 213 215 221 236 247 256 263 266 273 280 281 280 280 278 276 275 274 272 271 272 274 275 276 276 274 273 275 276 277 277 280 283 287 292 294 293 293 294 294 290 291 296 300 303 307 311 310 308 306 304 301 301 301 300
194 194 194 194 195 194 193 194 195 197 199 200 200 199 198 199 200 200 199 199 200 201 202 202 203 204 206 208 210 212 214 218 221 226 236 245 254 262 267 271 276 278 278 277 276 276 277 277 274 272 274 275 275 274 273 273 274 271 272 279 285 288 285 281 284 289 289 289 290 290 292 296 299 303 309 312 311 310 307 305 306 305 304 305 305
195 195 195 196 197 195 195 197 198 200 201 201 202 201 202 204 204 203 203 203 204 205 205 206 208 210 212 213 214 216 219 222 227 230 235 242 249 257 265 270 272 275 276 274 273 274 274 274 273 273 272 270 270 269 269 271 274 275 281 291 297 298 294 291 292 293 290 289 288 291 298 304 303 305 310 313 311 310 309 310 312 312 309 309 308
196 197 198 198 198 197 198 200 201 202 202 203 204 205 206 206 206 206 207 208 210 210 210 211 213 215 217 218 218 220 222 225 229 232 236 241 246 252 260 266 269 272 273 272 272 273 273 273 273 272 271 267 264 264 268 273 277 284 291 295 297 298 297 298 299 298 298 298 296 297 301 303 303 304 309 313 312 311 311 310 310 311 311 311 310
198 200 201 200 200 200 201 202 202 203 204 204 206 208 209 209 209 210 211 213 214 214 214 215 218 220 221 222 222 223 225 228 230 232 236 239 243 250 256 261 265 268 271 271 271 272 273 273 272 270 268 264 260 258 262 269 275 282 288 291 293 294 294 295 294 293 297 299 298 297 298 300 304 307 309 312 312 313 314 312 313 317 316 313 311
202 203 204 203 203 204 204 204 205 206 206 206 208 210 212 212 212 213 214 215 216 216 217 219 221 223 225 226 226 227 228 230 232 233 234 238 243 249 254 258 261 265 268 269 269 270 271 270 269 267 263 260 258 257 255 259 267 276 282 286 288 289 289 289 291 295 299 298 295 296 298 302 307 308 310 314 318 320 321 318 320 323 319 314 314
205 205 206 207 207 207 207 207 208 208 208 210 211 213 214 215 216 216 217 218 220 220 221 222 224 226 228 230 232 232 232 232 233 233 235 238 243 249 253 256 258 262 265 267 267 267 268 267 265 264 262 260 258 255 251 254 263 271 277 282 285 287 288 293 299 305 307 298 293 297 301 306 311 312 315 320 325 329 326 321 322 325 321 317 316
209 208 210 210 210 211 211 211 211 211 212 214 215 216 217 219 219 220 220 222 223 224 225 225 227 229 231 233 235 236 235 234 234 235 236 238 243 248 251 252 255 260 262 264 265 265 264 264 262 260 260 260 256 251 249 252 260 266 272 279 284 287 291 298 305 307 302 295 297 303 309 314 316 317 321 327 332 335 330 322 324 327 322 317 315
212 212 213 213 213 214 214 214 214 215 217 218 219 219 221 222 222 223 223 224 225 227 228 229 230 233 234 235 237 238 238 236 234 236 237 238 241 246 248 249 254 258 260 261 263 264 263 261 259 255 252 251 249 249 249 252 258 264 271 278 282 287 293 300 300 294 291 295 302 307 312 315 318 322 328 332 336 338 334 327 325 324 318 312 310
215 216 217 217 217 218 218 218 219 220 222 222 222 222 223 224 225 226 226 225 226 227 230 231 233 235 237 237 239 240 241 239 236 236 237 238 240 242 246 251 254 257 260 261 261 262 262 260 258 255 248 244 244 246 249 252 257 263 270 275 280 287 294 294 288 286 290 297 303 306 310 315 321 328 332 334 336 337 334 331 329 324 317 309 305
219 219 219 220 220 221 221 221 222 223 224 224 223 224 226 227 229 229 228 227 227 229 231 233 234 236 238 239 241 242 242 241 238 236 236 238 238 239 245 252 255 255 256 257 258 260 261 259 258 255 245 238 240 243 246 250 255 261 267 274 282 288 287 282 281 286 291 296 301 305 311 319 325 329 332 333 334 335 334 334 333 328 321 311 304
222 221 221 222 223 223 224 225 225 225 225 225 225 227 228 228 229 230 229 228 228 230 232 233 235 237 239 240 242 243 243 242 240 236 235 237 238 239 242 249 252 252 253 255 258 259 259 258 257 250 237 232 236 239 243 247 251 257 266 276 282 281 276 275 280 286 291 296 302 307 313 322 326 328 330 330 330 332 333 334 333 330 325 318 312
222 222 223 224 225 226 227 227 227 227 227 227 227 228 229 229 229 229 229 228 228 230 232 233 233 236 239 241 243 244 244 243 241 238 236 236 238 238 239 241 244 248 253 256 257 258 257 256 251 239 232 234 237 239 240 239 241 254 271 280 277 271 270 274 280 286 290 296 302 308 314 321 324 324 325 326 326 328 332 333 334 332 328 324 319
221 223 225 226 227 228 228 228 228 229 229 228 228 228 229 228 229 229 228 228 228 230 232 233 233 236 238 242 244 245 245 244 243 239 236 236 238 239 239 237 235 239 247 253 257 257 254 249 241 234 235 239 239 238 235 232 238 256 274 274 266 264 268 273 279 284 289 295 301 306 312 319 321 320 321 322 322 325 331 334 334 333 330 327 323
223 225 226 228 229 228 228 228 229 229 230 230 231 231 231 230 230 229 228 228 228 230 232 233 234 236 238 242 245 246 246 246 245 241 237 236 237 238 237 236 235 235 239 246 252 253 248 240 237 238 240 242 242 241 239 237 246 262 274 272 267 267 268 271 276 282 287 293 299 304 310 315 318 319 320 320 321 325 331 333 331 330 329 327 323
225 226 226 228 227 226 227 228 228 227 228 229 230 231 232 232 231 229 228 228 228 229 231 232 233 235 238 242 245 246 246 247 247 244 238 235 236 237 236 235 235 234 235 238 241 242 241 239 240 241 242 243 241 239 241 247 256 268 276 274 268 265 265 268 274 280 285 290 295 300 305 311 314 317 320 320 321 326 332 330 325 324 326 325 319
227 228 228 227 226 227 227 228 228 228 228 228 229 229 230 231 230 231 233 232 230 230 231 231 233 235 238 242 245 247 248 248 248 247 242 237 237 239 238 236 234 233 234 236 237 239 241 240 239 238 239 238 235 235 244 256 264 271 275 270 262 260 263 268 273 277 281 286 289 294 302 310 313 315 318 319 320 325 330 328 323 322 323 322 316
232 235 235 234 233 233 232 232 233 233 233 232 232 231 232 233 234 236 238 237 236 236 236 237 239 240 242 245 248 249 251 253 254 256 254 247 243 242 242 242 242 242 241 240 240 242 243 242 240 238 236 236 238 242 249 257 263 269 274 270 263 262 264 267 272 276 280 283 288 294 304 311 312 315 317 317 319 324 326 325 322 322 322 319 312
243 244 244 244 243 242 241 241 240 239 239 239 238 238 238 238 239 242 243 243 243 243 244 247 249 250 252 254 254 255 259 264 267 267 264 257 251 248 248 250 251 252 250 245 240 240 241 240 239 236 234 235 239 243 247 252 257 265 273 272 265 263 264 266 271 276 279 282 288 297 306 308 310 315 317 315 316 320 322 322 321 321 320 317 311
245 245 246 246 247 246 246 246 245 244 245 245 245 244 244 244 244 245 247 249 249 249 250 252 255 258 260 263 264 264 266 268 268 265 263 261 257 251 249 248 249 250 248 239 233 235 236 236 236 235 233 234 238 241 244 248 254 263 272 271 264 261 263 266 270 274 276 280 288 296 303 307 309 313 313 311 311 314 317 319 320 320 318 315 309
243 245 247 248 249 249 249 249 248 248 247 247 247 248 248 249 249 248 248 250 252 254 254 254 255 255 258 262 266 268 267 263 259 257 257 257 253 246 240 241 241 240 235 228 228 232 234 233 235 235 233 235 239 241 243 247 254 263 270 268 262 260 263 267 271 274 275 280 288 295 302 306 309 310 310 310 309 309 312 315 317 318 317 315 310
247 250 251 252 252 252 252 251 250 250 250 249 250 249 249 251 254 256 255 253 253 254 253 253 254 253 252 252 257 265 267 261 255 254 251 248 244 240 236 238 238 235 230 228 231 235 235 233 233 233 233 237 242 242 243 248 257 266 270 267 264 262 264 268 272 273 275 281 288 293 299 304 307 309 310 310 308 307 308 310 313 315 315 313 310
250 251 252 253 253 253 254 255 254 254 254 253 252 252 252 254 257 262 265 263 260 259 256 252 251 253 254 255 255 257 259 255 252 253 251 246 242 241 241 243 243 241 237 236 237 240 239 236 235 236 238 243 245 243 245 253 262 268 269 267 265 265 264 266 268 270 274 280 285 290 296 302 306 309 309 309 308 307 306 308 311 313 313 311 308
249 250 250 251 252 253 255 255 256 257 256 255 254 255 257 259 260 262 266 268 267 267 266 259 251 246 247 251 253 252 253 254 253 252 251 249 247 246 247 247 246 245 243 243 244 246 244 242 243 245 247 249 247 245 249 260 266 269 270 268 265 264 264 263 265 268 273 277 282 288 295 301 306 308 306 306 306 305 304 306 308 309 310 310 306
254 255 254 254 254 254 256 257 257 258 258 259 260 259 259 261 262 262 264 265 264 264 265 263 253 242 238 238 238 238 240 246 251 254 258 262 262 260 258 257 254 249 247 246 247 249 249 249 251 252 252 250 248 248 257 265 268 270 271 268 264 263 262 262 264 268 272 275 280 288 295 299 303 306 307 306 304 302 301 303 305 307 309 308 305
261 260 258 258 258 257 258 258 257 258 258 258 259 260 260 261 262 262 262 261 259 258 257 258 255 247 240 240 242 244 245 248 251 253 257 263 267 267 266 266 266 262 257 253 250 251 253 254 255 256 255 253 251 255 262 266 267 270 270 266 262 262 262 262 264 268 271 275 281 288 295 298 301 305 306 305 304 302 301 302 303 305 306 306 305
262 261 258 257 257 257 257 257 255 255 256 256 255 255 255 253 254 255 256 254 254 254 254 255 258 258 255 254 255 258 261 261 259 259 259 260 261 261 262 266 268 266 264 262 260 259 259 258 258 258 257 256 256 259 262 263 265 268 268 264 261 262 262 262 263 265 270 276 281 287 293 296 300 304 305 303 302 302 301 301 303 305 305 305 306
259 255 250 251 254 253 252 252 249 246 246 244 242 241 240 239 241 243 245 246 248 250 254 261 268 273 278 279 276 275 279 280 278 277 276 274 271 268 266 268 271 272 272 271 270 268 265 262 260 259 258 258 259 259 260 262 266 268 267 263 260 260 260 261 263 265 269 274 280 286 292 296 300 303 303 301 301 302 301 301 302 302 302 303 304
222 213 226 245 248 243 238 237 237 239 239 239 239 235 233 233 237 241 244 248 253 258 265 275 282 288 295 299 301 302 301 301 300 298 295 293 291 287 282 278 277 278 278 277 277 275 274 270 267 265 263 261 259 259 261 266 269 269 267 263 260 259 261 262 264 267 270 275 281 287 292 296 300 301 300 299 300 302 301 299 298 297 297 299 301
125 134 121 96 110 148 156 165 191 213 223 226 231 228 222 224 230 237 247 256 264 273 282 287 290 295 300 306 312 310 303 301 302 302 299 297 296 294 292 289 287 285 284 282 280 280 279 277 275 272 269 265 263 263 267 270 270 268 265 262 261 261 262 263 265 269 272 276 282 287 291 295 298 298 297 297 298 298 296 295 294 295 296 298 300
109 119 106 89 89 93 94 109 133 155 186 209 222 228 232 243 247 252 262 272 279 285 290 291 294 299 301 305 311 307 297 291 291 293 296 297 296 294 291 290 290 290 289 288 287 285 283 281 278 275 273 271 271 272 273 272 269 266 263 262 261 261 263 264 267 271 273 278 283 288 291 294 294 293 293 294 295 296 297 296 296 296 297 299 300
104 109 99 88 89 93 99 116 133 150 176 194 208 226 250 272 286 286 296 302 298 298 303 306 309 313 314 314 312 305 297 293 293 296 298 299 297 296 294 291 288 286 285 286 288 288 287 284 281 278 276 275 275 275 274 272 268 265 262 260 260 261 263 265 268 272 276 281 286 288 289 289 290 290 291 293 295 295 296 296 297 298 298 298 300
94 98 98 96 99 105 114 127 128 121 123 125 46 334 314 319 316 306 305 309 307 309 314 319 320 320 321 321 315 307 304 305 304 304 304 304 304 304 303 301 298 294 288 284 284 285 285 285 282 280 279 277 276 276 277 275 270 264 261 260 260 262 264 268 272 278 282 284 285 286 286 287 288 289 289 291 294 295 295 297 298 297 297 297 299
95 103 110 114 121 134 151 163 186 267 281 291 298 297 295 296 297 297 300 305 311 313 314 316 315 312 312 316 316 314 313 314 313 311 312 312 312 312 312 311 309 306 301 294 289 284 282 281 279 278 278 278 278 279 280 277 272 266 264 264 265 266 269 274 278 282 283 282 282 284 285 284 284 284 286 289 293 293 294 297 295 292 293 296 298
93 96 103 117 137 158 176 198 235 253 261 271 276 277 274 276 283 293 298 298 302 304 304 306 308 308 311 315 317 318 319 319 317 317 318 317 316 317 318 316 313 310 307 304 299 292 287 282 279 278 277 277 279 280 280 276 272 269 267 268 268 270 274 278 280 280 281 280 281 282 281 281 281 281 283 288 290 290 292 295 293 291 292 295 297
82 84 95 109 115 132 178 209 232 246 255 262 265 265 269 276 282 289 291 292 295 299 302 307 310 312 315 317 318 319 321 319 317 316 316 316 316 317 316 315 314 312 310 308 304 300 295 289 285 282 280 279 280 280 279 275 272 270 268 269 270 273 276 278 278 278 278 278 277 277 276 277 278 280 282 286 288 290 292 294 292 292 293 294 296
85 90 94 87 83 102 125 97 80 245 251 261 271 274 278 283 287 293 298 301 302 304 308 312 314 315 315 315 316 317 317 315 314 315 315 314 315 316 314 313 312 311 310 310 308 304 300 295 290 287 284 282 282 281 280 278 274 271 270 271 272 274 277 277 276 276 275 273 273 273 273 275 277 280 283 286 287 290 293 293 291 291 292 292 294
90 93 93 89 91 101 123 221 280 282 284 286 289 293 297 298 301 306 307 307 307 309 311 311 312 313 313 314 314 315 315 314 314 316 315 314 315 316 316 315 314 311 309 309 308 306 302 297 292 288 285 283 282 282 281 279 277 274 274 274 274 274 275 274 271 271 270 268 269 271 272 275 278 280 281 283 285 288 290 288 286 288 289 289 293
88 91 92 113 219 269 274 272 278 287 289 289 293 299 301 300 302 305 306 305 305 307 309 310 310 311 312 313 313 314 313 313 314 315 315 316 316 317 318 317 317 316 314 311 309 307 304 299 295 292 287 284 283 282 281 279 278 277 277 276 275 273 272 269 267 268 267 268 271 273 273 276 279 280 281 284 287 287 285 282 281 285 288 288 290
131 244 259 261 265 271 277 283 289 291 290 291 295 298 298 299 302 303 303 302 304 307 309 310 310 309 310 311 312 311 310 310 311 312 313 314 315 316 317 317 317 316 316 313 310 308 305 302 299 296 292 289 288 286 284 283 282 281 280 277 273 270 269 267 266 266 265 264 267 269 271 275 280 282 283 287 287 284 280 279 280 284 286 285 288